EW5975 Weather Reports


Display with metric or nautical units.
time (UTC)temp
F
wind
direction
speed
MPH
gust
MPH
rain 1hr
in
rain 24hr
in
rain mn
in
humidity
%
barometer
mb
20260904112016 90 135 3.0 9.0 0.00 0.00 0.00 57 1019.6
20260904111016 90 135 2.0 8.0 0.00 0.00 0.00 58 1019.7
20260904110017 90 135 3.0 8.0 0.00 0.00 0.00 56 1019.7
20260904105016 91 135 3.0 6.0 0.00 0.00 0.00 56 1019.6
20260904104017 90 135 3.0 7.0 0.00 0.00 0.00 53 1019.7
20260904103016 91 135 2.0 9.0 0.00 0.00 0.00 52 1019.7
20260904102016 91 158 2.0 6.0 0.00 0.00 0.00 50 1019.7
20260904101016 90 270 2.0 4.0 0.00 0.00 0.00 46 1019.9
20260904100016 90 90 2.0 4.0 0.00 0.00 0.00 45 1020.0
20260904095016 90 135 2.0 11.0 0.00 0.00 0.00 45 1020.1
20260904094036 90 248 1.0 2.0 0.00 0.00 0.00 45 1020.0
20260904093016 89 225 1.0 5.0 0.00 0.00 0.00 46 1020.0
20260904092016 89 135 2.0 5.0 0.00 0.00 0.00 46 1020.1
20260904091036 88 203 1.0 3.0 0.00 0.00 0.00 46 1019.9
20260904090016 88 135 1.0 3.0 0.00 0.00 0.00 48 1019.9
20260904085016 87 135 1.0 3.0 0.00 0.00 0.00 48 1019.8
20260904084016 86 0.0 3.0 0.00 0.00 0.00 49 1019.7
20260904083036 85 135 1.0 3.0 0.00 0.00 0.00 50 1019.6
20260904082016 84 225 1.0 2.0 0.00 0.00 0.00 51 1019.6
20260904081017 84 135 1.0 3.0 0.00 0.00 0.00 49 1019.6
20260904080015 83 0.0 3.0 0.00 0.00 0.00 47 1019.6
20260904075016 83 0.0 2.0 0.00 0.00 0.00 49 1019.6
20260904074015 82 135 1.0 3.0 0.00 0.00 0.00 49 1019.5
20260904073015 81 0.0 0.0 0.00 0.00 0.00 50 1019.5
20260904072016 80 0.0 1.0 0.00 0.00 0.00 51 1019.5
20260904071016 78 0.0 1.0 0.00 0.00 0.00 53 1019.4
20260904070015 77 0.0 2.0 0.00 0.00 0.00 58 1019.4
20260904065136 75 0.0 0.0 0.00 0.00 0.00 61 1019.3
20260904064015 73 0.0 0.0 0.00 0.00 0.00 60 1019.2
20260904063016 72 0.0 0.0 0.00 0.00 0.00 65 1019.2
20260904062015 71 0.0 0.0 0.00 0.00 0.00 68 1019.2
20260904061015 70 0.0 0.0 0.00 0.00 0.00 69 1019.1
20260904060015 69 0.0 0.0 0.00 0.00 0.00 70 1019.1
20260904055015 69 0.0 0.0 0.00 0.00 0.00 71 1019.1
20260904054017 69 0.0 0.0 0.00 0.00 0.00 72 1019.0
20260904053015 69 0.0 0.0 0.00 0.00 0.00 72 1019.0
20260904052037 69 0.0 0.0 0.00 0.00 0.00 70 1019.0
20260904051018 69 0.0 0.0 0.00 0.00 0.00 70 1018.9
20260904050037 69 0.0 0.0 0.00 0.00 0.00 70 1019.0
20260904045017 69 0.0 0.0 0.00 0.00 0.00 70 1019.0
20260904044019 69 0.0 0.0 0.00 0.00 0.00 70 1019.0
20260904043017 69 0.0 0.0 0.00 0.00 0.00 71 1019.0
20260904042017 69 0.0 0.0 0.00 0.00 0.00 69 1018.9
20260904041017 69 0.0 0.0 0.00 0.00 0.00 69 1018.9
20260904040037 70 0.0 0.0 0.00 0.00 0.00 68 1018.9
20260904035017 70 0.0 0.0 0.00 0.00 0.00 68 1019.1
20260904034017 70 0.0 0.0 0.00 0.00 0.00 68 1019.1
20260904033017 70 0.0 0.0 0.00 0.00 0.00 67 1019.2
20260904032019 70 0.0 0.0 0.00 0.00 0.00 67 1019.1
20260904031037 70 0.0 0.0 0.00 0.00 0.00 67 1019.2
20260904030017 70 0.0 0.0 0.00 0.00 0.00 66 1019.2
20260904025017 70 0.0 0.0 0.00 0.00 0.00 66 1019.1
20260904024017 70 0.0 0.0 0.00 0.00 0.00 66 1019.1
20260904023017 71 0.0 0.0 0.00 0.00 0.00 65 1019.0
20260904022017 71 0.0 0.0 0.00 0.00 0.00 66 1018.8
20260904021017 71 0.0 0.0 0.00 0.00 0.00 66 1018.9
20260904020037 71 0.0 0.0 0.00 0.00 0.00 65 1018.9
20260904015017 71 0.0 0.0 0.00 0.00 0.00 65 1019.0
20260904014017 71 0.0 0.0 0.00 0.00 0.00 66 1018.9
20260904013017 71 0.0 0.0 0.00 0.00 0.00 66 1018.9
20260904012017 71 0.0 1.0 0.00 0.00 0.00 67 1018.9
20260904011017 71 0.0 0.0 0.00 0.00 0.00 68 1018.9
20260904010017 71 0.0 0.0 0.00 0.00 0.00 69 1019.0
20260904005018 71 0.0 0.0 0.00 0.00 0.00 69 1019.0
20260904004017 71 0.0 0.0 0.00 0.00 0.00 69 1019.1
20260904003018 71 0.0 0.0 0.00 0.00 0.00 70 1019.1
20260904002017 71 0.0 1.0 0.00 0.00 0.00 70 1019.0
20260904001017 72 0.0 0.0 0.00 0.00 0.00 72 1019.2
20260904000037 72 0.0 0.0 0.00 0.00 0.00 73 1019.3
20260903235017 72 0.0 0.0 0.00 0.00 0.00 74 1019.3
20260903234016 72 0.0 0.0 0.00 0.00 0.00 74 1019.4
20260903233016 72 0.0 0.0 0.00 0.00 0.00 75 1019.4
20260903232016 73 0.0 0.0 0.00 0.00 0.00 75 1019.5
20260903231016 73 0.0 0.0 0.00 0.00 0.00 75 1019.5
20260903230017 73 0.0 0.0 0.00 0.00 0.00 75 1019.6
20260903225017 73 0.0 0.0 0.00 0.00 0.00 75 1019.6
20260903224016 73 0.0 0.0 0.00 0.00 0.00 75 1019.5
20260903223036 74 0.0 0.0 0.00 0.00 0.00 74 1019.4
20260903222016 74 0.0 0.0 0.00 0.00 0.00 74 1019.5
20260903221016 74 0.0 0.0 0.00 0.00 0.00 74 1019.5
20260903220016 74 0.0 0.0 0.00 0.00 0.00 74 1019.4
20260903215056 74 0.0 0.0 0.00 0.00 0.00 74 1019.3
20260903214016 74 0.0 0.0 0.00 0.00 0.00 73 1019.4
20260903213016 75 0.0 0.0 0.00 0.00 0.00 73 1019.4
20260903212016 75 0.0 0.0 0.00 0.00 0.00 72 1019.5
20260903211016 75 0.0 0.0 0.00 0.00 0.00 71 1019.5
20260903210016 75 0.0 0.0 0.00 0.00 0.00 71 1019.5
20260903205016 75 0.0 0.0 0.00 0.00 0.00 72 1019.5
20260903204016 75 0.0 0.0 0.00 0.00 0.00 72 1019.5
20260903203036 76 0.0 0.0 0.00 0.00 0.00 72 1019.4
20260903202016 76 0.0 0.0 0.00 0.00 0.00 71 1019.4
20260903201016 76 0.0 0.0 0.00 0.00 0.00 71 1019.5
20260903200016 76 0.0 0.0 0.00 0.00 0.00 71 1019.4
20260903195016 76 0.0 0.0 0.00 0.00 0.00 70 1019.5
20260903194016 77 0.0 1.0 0.00 0.00 0.00 69 1019.3
20260903193016 77 0.0 1.0 0.00 0.00 0.00 69 1019.1
20260903192016 77 0.0 1.0 0.00 0.00 0.00 68 1019.0
20260903191036 77 0.0 0.0 0.00 0.00 0.00 67 1018.9
20260903190015 78 0.0 0.0 0.00 0.00 0.00 66 1018.7
20260903185037 78 0.0 0.0 0.00 0.00 0.00 65 1018.7
20260903184037 78 0.0 0.0 0.00 0.00 0.00 64 1018.6
20260903183016 79 0.0 0.0 0.00 0.00 0.00 64 1018.5
20260903182036 79 0.0 1.0 0.00 0.00 0.00 63 1018.5
20260903181016 80 0.0 1.0 0.00 0.00 0.00 62 1018.5
20260903180016 81 0.0 0.0 0.00 0.00 0.00 60 1018.5
20260903175015 82 0.0 0.0 0.00 0.00 0.00 59 1018.4
20260903174017 83 0.0 0.0 0.00 0.00 0.00 58 1018.4
20260903173015 83 0.0 0.0 0.00 0.00 0.00 57 1018.5
20260903172035 84 0.0 0.0 0.00 0.00 0.00 56 1018.4
20260903171017 85 0.0 0.0 0.00 0.00 0.00 55 1018.4
20260903170017 86 0.0 0.0 0.00 0.00 0.00 53 1018.4
20260903165017 87 0.0 0.0 0.00 0.00 0.00 51 1018.4
20260903164018 88 0.0 2.0 0.00 0.00 0.00 49 1018.5
20260903163017 89 248 1.0 2.0 0.00 0.00 0.00 50 1018.6
20260903162017 89 248 1.0 3.0 0.00 0.00 0.00 50 1018.6
20260903161017 89 0.0 3.0 0.00 0.00 0.00 49 1018.7
20260903160017 89 248 1.0 3.0 0.00 0.00 0.00 49 1018.7
20260903155037 89 158 2.0 5.0 0.00 0.00 0.00 48 1018.7
20260903154017 90 135 2.0 5.0 0.00 0.00 0.00 47 1018.6
20260903153059 90 158 2.0 5.0 0.00 0.00 0.00 48 1018.6
20260903152017 90 158 2.0 5.0 0.00 0.00 0.00 47 1018.6
20260903151037 90 180 2.0 5.0 0.00 0.00 0.00 47 1018.7
20260903150017 90 135 2.0 4.0 0.00 0.00 0.00 48 1018.6
20260903145018 91 135 2.0 6.0 0.00 0.00 0.00 48 1018.6
20260903144017 90 135 2.0 4.0 0.00 0.00 0.00 49 1018.6
20260903143018 90 158 2.0 4.0 0.00 0.00 0.00 46 1018.6
20260903142017 90 135 2.0 7.0 0.00 0.00 0.00 47 1018.6
20260903141017 90 135 2.0 5.0 0.00 0.00 0.00 49 1018.7
20260903140017 90 158 2.0 6.0 0.00 0.00 0.00 50 1018.8
20260903135017 90 135 3.0 8.0 0.00 0.00 0.00 49 1018.9
20260903134017 91 135 2.0 5.0 0.00 0.00 0.00 50 1018.9
20260903133017 90 135 2.0 5.0 0.00 0.00 0.00 50 1019.0
20260903132017 90 135 2.0 7.0 0.00 0.00 0.00 51 1018.9
20260903131017 90 158 2.0 5.0 0.00 0.00 0.00 52 1018.9
20260903130017 90 135 3.0 6.0 0.00 0.00 0.00 53 1019.0
20260903125016 90 135 2.0 5.0 0.00 0.00 0.00 51 1018.9
20260903124017 90 135 3.0 7.0 0.00 0.00 0.00 51 1018.9
20260903123017 90 113 1.0 4.0 0.00 0.00 0.00 51 1019.0
20260903122016 91 158 2.0 8.0 0.00 0.00 0.00 51 1019.0
20260903121017 90 135 2.0 8.0 0.00 0.00 0.00 48 1019.0
20260903120017 90 113 2.0 4.0 0.00 0.00 0.00 48 1019.0
20260903115016 90 158 2.0 6.0 0.00 0.00 0.00 49 1019.2
20260903114017 91 135 1.0 3.0 0.00 0.00 0.00 48 1019.1
20260903113016 91 158 2.0 5.0 0.00 0.00 0.00 47 1019.1